Regional Weather Roundup
Issued by NWS

Home | Current Version | Previous Version | Graphics & Text | Print | Product List | Glossary On
Versions: 1 2 3 4 5 6 7 8 9 10 11 12 13 14 15 16 17 18 19 20 21 22 23 24 25 26 27 28 29 30 31 32 33 34 35 36 37 38 39 40 41 42 43 44 45 46 47 48 49 50
009
ASUS43 KLOT 212304
RWRIL

ILLINOIS REGIONAL WEATHER ROUNDUP
NATIONAL WEATHER SERVICE CHICAGO/ROMEOVILLE IL
600 PM CDT SAT OCT 21 2017

NOTE: "FAIR" INDICATES FEW OR NO CLOUDS BELOW 12,000 FEET WITH NO
SIGNIFICANT WEATHER AND/OR OBSTRUCTIONS TO VISIBILITY.

* THESE STATIONS ARE NOT UNDER NWS QUALITY CONTROL. THEY ALSO MAY NOT
  REPORT WEATHER SUCH AS PRECIPITATION OR FOG.

ILZ001-002-007-009-015-016-024-220000-
NORTHWEST ILLINOIS

CITY           SKY/WX    TMP DP  RH WIND       PRES   REMARKS
MOLINE         CLOUDY    77  59  53 S16G23    29.88S
STERLING*      CLOUDY    75  61  61 S8          N/A
SAVANNA*       PTCLDY    75  60  59 S14       29.89S
$$

ILZ003-004-008-010-011-017-018-220000-
NORTH CENTRAL ILLINOIS

CITY           SKY/WX    TMP DP  RH WIND       PRES   REMARKS
ROCKFORD       MOCLDY    74  58  57 S18       29.95R
FREEPORT*      CLOUDY    73  58  60 S13G20    29.94R
ROCHELLE*      CLEAR     72  59  63 S13G18    29.96R
DE KALB*       CLEAR     71  59  66 S16G22    29.98R
PERU*          CLEAR     73  57  56 S13G21    29.98R
$$

ILZ005-006-012>014-019>023-220000-
NORTHEAST ILLINOIS

CITY           SKY/WX    TMP DP  RH WIND       PRES   REMARKS
CHICAGO-OHARE  MOCLDY    74  58  57 S18       29.99R
CHICAGO-MIDWAY MOCLDY    75  59  57 S16       30.01R
AURORA         CLEAR     73  59  61 S14       29.99R
LANSING*       CLOUDY    71  60  67 S12       30.03R
JOLIET*        PTCLDY    74  60  61 S9        30.01R
WAUKEGAN       CLOUDY    73  58  59 S17       29.96S
DUPAGE AIRPORT PTCLDY    72  60  66 S15G26    29.98R
KANKAKEE*      CLEAR     73  57  56 S8G16     30.04S
WHEELING       CLOUDY    75  60  59 S16       29.99S
MORRIS*        CLEAR     74  58  58 S16       29.99R
ROMEOVILLE*    PTCLDY   N/A N/A N/A S15       30.01R
NORTHERLY ISL    N/A     74  56  53 S10         N/A
$$

LMZ740>746-220000-
SOUTHERN LAKE MICHIGAN

STATION/POSITION SKY/WX   TEMP    WIND        PRES    VSBY  WAVE
                          AIR SEA DIR/SP/G                  HT/PER
                          (F)     (DEG/KT/KT) (MB)    (MI)  (FT/S)
SOUTHERN BUOY              65 61  150/ 17/ 21 1015.4          3/ 4
WILMETTE HARBOR            65 60  160/ 12/ 16   N/A           3/ 4
HARRISON CRIB              72     180/ 23/ 25   N/A
BURNHAM HARBOR             73     170/ 13/ 19   N/A
CALUMET HARBOR             74     160/  9/ 16 1015.5R
BURNS HARBOR               73     170/ 10/ 19 1016.9F
MICHIGAN CITY              73     150/ 12/ 15   N/A
MICHIGAN CITY 6N           69 58  170/ 14/ 19   N/A           1/ 2
ST. JOSEPH                 67 59  190/ 12/ 14 1017.4R         1/ 3
$$

ILZ025>027-034>036-040-047-049-050-058-095>099-220000-
WEST-CENTRAL ILLINOIS

CITY           SKY/WX    TMP DP  RH WIND       PRES   REMARKS
QUINCY         CLOUDY    76  61  59 S12G22    29.91R
MACOMB*        CLOUDY    74  62  67 S16       29.95R
JACKSONVILLE*  MOCLDY    74  60  61 SE12      29.96S
PITTSFIELD*    CLOUDY    75  63  67 SE9       29.95S
$$

ILZ028>032-037-038-041>044-048-051>054-059>061-220000-
CENTRAL ILLINOIS

CITY           SKY/WX    TMP DP  RH WIND       PRES   REMARKS
PONTIAC        CLEAR     74  60  62 S13G20    30.01R
BLOOMINGTON    CLEAR     72  59  63 S15       30.02R
DECATUR        PTCLDY    74  58  57 S15       30.02R
PEORIA         PTCLDY    74  59  59 S14G25    29.97R
LACON*         PTCLDY    74  59  58 S10       29.96R
LINCOLN*       CLEAR     75  61  61 S15       29.99R
SPRINGFIELD    CLEAR     76  60  57 S17G23    29.99R
TAYLORVILLE    MOCLDY    74  58  56 S12G21    30.02R
$$

ILZ033-039-045-046-055>057-062-063-220000-
EAST-CENTRAL ILLINOIS

CITY           SKY/WX    TMP DP  RH WIND       PRES   REMARKS
CHAMPAIGN      CLEAR     74  57  55 S21G26    30.04S
DANVILLE*      CLOUDY    72  57  60 S12       30.05R
RANTOUL*       CLEAR     74  60  62 S15G22    30.04S
MATTOON        CLEAR     72  58  61 S12       30.04F
PARIS*         CLEAR     71  57  62 SE14      30.09S
$$

ILZ079-100>102-220000-
SOUTHWEST ILLINOIS

CITY           SKY/WX    TMP DP  RH WIND       PRES   REMARKS
ALTON          PTCLDY   N/A N/A N/A S12       29.99R
BELLEVILLE     MOCLDY    76  60  56 S12       30.03R
CAHOKIA*       MOCLDY    79  59  50 S9        29.99R HX  80
SPARTA*        CLEAR     76  58  52 SE13G18   30.03S
$$

ILZ064>066-069>071-074>076-080>082-084>086-088>090-092>094-220000-
SOUTH-CENTRAL ILLINOIS

CITY           SKY/WX    TMP DP  RH WIND       PRES   REMARKS
CARBONDALE     CLEAR     75  58  55 S8        30.05S
CAIRO*         CLEAR     74  61  61 SE9       30.06S
EFFINGHAM*     PTCLDY    74  58  57 SE14      30.07S
MARION         PTCLDY    77  57  50 SE12      30.07S
MT. VERNON     CLOUDY    75  57  53 SE9       30.06S
CENTRALIA*     CLEAR     75  58  55 SE13      30.04R
SALEM*         CLOUDY    76  56  49 SE8       30.05S
METROPOLIS*    CLEAR     76  59  56 SE5       30.08F
$$

ILZ067-068-072-073-078-083-087-091-220000-
SOUTHEAST ILLINOIS

CITY           SKY/WX    TMP DP  RH WIND       PRES   REMARKS
LAWRENCEVILLE  CLEAR     72  56  57 S14       30.11S
FLORA*         PTCLDY    72  59  62 SE7       30.07S
FAIRFIELD*     CLOUDY    74  56  52 SE7       30.07S
HARRISBURG*    CLOUDY    75  57  52 SE12      30.08F
ROBINSON*      CLEAR     70  56  61 S8        30.11S
CARMI*         MOCLDY    72  57  59 SE8       30.09S
$$

ABBREVIATIONS USED IN REMARKS
   TC - TEMPERATURE IN CELSIUS
  WCI - WIND CHILL INDEX
   HX - HEAT INDEX
  VSB - VISIBILITY
$$





USA.gov is the U.S. government's official web portal to all federal, state and local government web resources and services.